Selinsgrove, PA

12:15 PM EDT on September 29, 2016 (GMT -0400)
Penn Valley

Weather History for KSEG - January, 2014

Change the Weather History Date:

Monday, January 6, 2014

  Actual Average (KIPT) Record (KIPT)
Temperature  
Mean Temperature 21 °F 27 °F  
Max Temperature 39 °F 34 °F 64 °F (2007)
Min Temperature 3 °F 20 °F -9 °F (1904)
Degree Days  
Heating Degree Days 44 38  
Month to date heating degree days 228  
Since 1 July heating degree days 2521  
Cooling Degree Days 0 0  
Month to date cooling degree days 0  
Year to date cooling degree days 0  
Moisture  
Dew Point 23 °F    
Average Humidity 75    
Maximum Humidity 100    
Minimum Humidity 40    
Precipitation  
Precipitation 0.10 in 0.09 in 2.01 in (1910)
Month to date precipitation 0.50  
Year to date precipitation 0.50  
Snow  
Snow 0.00 in 0.30 in 8.50 in (2002)
Month to date snowfall 1.7  
Since 1 July snowfall 10.4  
Snow Depth -    
Sea Level Pressure  
Sea Level Pressure 29.63 in    
Wind  
Wind Speed 7 mph (West)    
Max Wind Speed 18 mph    
Max Gust Speed 32 mph    
Visibility 7 miles    
Events Fog , Rain    
T = Trace of Precipitation, MM = Missing Value Source: NWS Daily Summary

Daily Weather History Graph

Daily Weather History Graph

Search for Another Location

Airport or City:

Trip Planner

Search our weather history database for the weather conditions in past years. The results will help you decide how hot, cold, wet, or windy it might be!

Date:

Astronomy

Jan. 06, 2014 Rise Set
Actual Time 7:31 AM EST 4:55 PM EST
Civil Twilight 7:01 AM EST 5:25 PM EST
Nautical Twilight 6:27 AM EST 5:59 PM EST
Astronomical Twilight 5:53 AM EST 6:33 PM EST
Moon 10:43 AM EST (1/6) 11:28 PM EST (1/6)
Length of Visible Light 10h 24m
Length of Day
9h 23m
Waxing Crescent, 34% of the Moon is Illuminated
Jan 6
Waxing Crescent
Jan 7
First Quarter
Jan 15
Full
Jan 24
Last Quarter
Jan 30
New

Hourly Weather History & Observations

Time (EST) Temp. Windchill Dew Point Humidity Pressure Visibility Wind Dir Wind Speed Gust Speed Precip Events Conditions
12:53 AM 33.1 °F 30.0 °F 32.0 °F 96% 29.60 in 0.5 mi WNW 3.5 mph - 0.01 in Fog Fog
1:53 AM 33.1 °F - 32.0 °F 96% 29.56 in 0.5 mi Calm Calm - 0.01 in Fog Fog
2:53 AM 33.1 °F 30.0 °F 32.0 °F 96% 29.52 in 1.0 mi North 3.5 mph - N/A   Overcast
3:10 AM 37.0 °F 34.5 °F 35.1 °F 93% 29.49 in 2.0 mi WSW 3.5 mph - 0.00 in Rain Light Rain
3:20 AM 36.0 °F - 35.1 °F 97% 29.48 in 1.8 mi Calm Calm - 0.00 in Rain Light Rain
3:35 AM 35.1 °F 32.2 °F 34.0 °F 96% 29.48 in 1.8 mi West 3.5 mph - 0.00 in   Overcast
3:42 AM 37.9 °F 34.4 °F 36.0 °F 93% 29.47 in 2.5 mi WSW 4.6 mph - 0.00 in   Overcast
3:49 AM 37.4 °F 33.8 °F 37.4 °F 100% 29.47 in 4.0 mi WSW 4.6 mph - 0.00 in Rain Light Rain
3:53 AM 37.9 °F 33.5 °F 37.0 °F 97% 29.48 in 4.0 mi SW 5.8 mph - 0.01 in Rain Light Rain
4:21 AM 39.9 °F 33.9 °F 37.9 °F 93% 29.46 in 2.5 mi SW 9.2 mph - 0.04 in Rain Rain
4:28 AM 39.0 °F 33.4 °F 37.9 °F 96% 29.45 in 4.0 mi SW 8.1 mph - 0.05 in Rain Light Rain
5:31 AM 39.9 °F 34.5 °F 37.9 °F 93% 29.49 in 3.0 mi WSW 8.1 mph 20.7 mph 0.05 in Rain Rain
5:42 AM 39.0 °F 34.0 °F 37.9 °F 96% 29.49 in 8.0 mi SSW 6.9 mph - 0.05 in Rain Light Rain
5:53 AM 39.0 °F 35.7 °F 37.9 °F 96% 29.49 in 10.0 mi SSW 4.6 mph - 0.06 in Rain Light Rain
6:53 AM 37.9 °F - 37.0 °F 97% 29.50 in 7.0 mi Calm Calm - 0.00 in Rain Light Rain
7:53 AM 39.9 °F 32.9 °F 36.0 °F 86% 29.54 in 9.0 mi West 11.5 mph 18.4 mph 0.01 in Rain Light Rain
8:03 AM 39.9 °F 35.1 °F 35.1 °F 83% 29.54 in 10.0 mi West 6.9 mph - 0.00 in   Overcast
8:53 AM 37.9 °F 29.6 °F 28.0 °F 68% 29.60 in 10.0 mi West 13.8 mph 23.0 mph 0.00 in   Overcast
9:53 AM 36.0 °F 26.7 °F 24.1 °F 62% 29.65 in 10.0 mi West 15.0 mph 25.3 mph N/A   Overcast
10:53 AM 35.1 °F 24.8 °F 21.0 °F 57% 29.66 in 10.0 mi WNW 17.3 mph 27.6 mph N/A   Clear
11:53 AM 34.0 °F 23.0 °F 19.0 °F 54% 29.64 in 10.0 mi West 18.4 mph 25.3 mph N/A   Mostly Cloudy
12:53 PM 30.9 °F 19.1 °F 16.0 °F 54% 29.65 in 10.0 mi WNW 18.4 mph 28.8 mph 0.00 in   Scattered Clouds
1:53 PM 33.1 °F 24.9 °F 17.1 °F 52% 29.66 in 10.0 mi West 10.4 mph 19.6 mph N/A   Scattered Clouds
2:53 PM 30.9 °F 21.2 °F 14.0 °F 50% 29.68 in 10.0 mi West 12.7 mph 21.9 mph N/A   Mostly Cloudy
3:53 PM 28.0 °F 18.1 °F 10.9 °F 49% 29.70 in 10.0 mi West 11.5 mph 23.0 mph N/A   Mostly Cloudy
4:53 PM 27.0 °F 16.7 °F 10.9 °F 51% 29.72 in 10.0 mi West 11.5 mph 19.6 mph N/A   Overcast
7:53 PM 12.9 °F -2.8 °F -2.9 °F 49% 29.91 in 10.0 mi WNW 15.0 mph 25.3 mph 0.00 in   Mostly Cloudy
8:53 PM 9.0 °F -9.0 °F -11.0 °F 40% 29.96 in 10.0 mi WNW 17.3 mph 29.9 mph N/A   Clear
9:53 PM 6.1 °F -13.3 °F -13.0 °F 41% 30.00 in 10.0 mi West 18.4 mph 32.2 mph N/A   Clear
10:53 PM 3.9 °F -12.2 °F -13.0 °F 46% 30.02 in 10.0 mi West 11.5 mph 18.4 mph N/A   Mostly Cloudy
11:53 PM 3.0 °F -14.8 °F -11.9 °F 50% 30.05 in 10.0 mi West 13.8 mph 20.7 mph N/A   Overcast